Volver al catálogo

STARLINK-4729

ActivoComunicacionesVLEO
NORAD 53804·PAYLOAD·🇺🇸 United States

Lanzado Sep 11, 2022 desde Cape Canaveral Space Force Station

Loading…

Próximos Pases (próximas 24 horas)

TLE

ActualizadoSource: CelesTrak SupGP

Época: Sep 14, 2026, 21:31 UTC

1 53804C 22111AH  26257.89701389 -.00015333  00000+0 -45330-3 0  2575
2 53804  53.1580 117.5842 0001228  89.2060 301.8011 15.34379142    14

Sigue STARLINK-4729 en tiempo real con AllMySat

Download on the App Store